Wetbulb
30.75 24.77 21.56 25.09 27.31 26.95 25.35 24.25 24.02 29.45 32.95 31.20 31.59 33.25 36.51 40.15 41.23 41.68 42.97 43.46 44.25 45.00 47.47 48.87 48.77 53.79 55.38 56.93 57.85 57.33 54.94 55.05 55.08 52.94 51.92 51.29 50.20 52.04 48.88 48.45 49.34 49.96 49.68 48.79
25.72 20.52 26.65 28.19 26.87 24.45 23.47 21.46 22.04 27.36 31.74 31.53 31.45 31.06 35.33 38.15 39.41 40.84 41.43 42.53 43.81 45.06 46.23 46.62 46.59 49.90 53.25 54.82 56.57 56.32 54.62 54.69 54.10 53.55 53.59 54.62 54.34 53.49 51.09 47.86 47.63 49.03 48.81 48.56
21.19 24.48 28.70 25.90 24.19 21.87 22.43 20.70 21.41 22.34 27.84 30.82 29.40 28.75 32.53 36.80 38.98 40.45 41.66 42.82 43.62 44.05 45.02 46.70 44.17 45.39 49.82 52.40 55.01 55.73 54.68 54.34 53.85 54.47 53.92 50.13 49.69 46.53 47.65 44.66 45.60 47.70 47.67 47.24
24.04 28.07 25.19 23.68 21.63 23.32 17.70 25.88 24.49 22.51 21.61 17.67 29.69 18.98 30.14 34.13 35.44 37.81 39.89 41.46 42.56 43.91 45.31 45.96 46.76 45.41 45.50 50.05 53.75 55.00 54.97 54.48 53.98 54.36 52.00 49.48 49.23 48.18 48.09 49.36 48.72 47.60 46.53 46.26
22.31 23.90 23.00 21.45 22.65 25.47 20.66 26.41 23.97 23.56 20.78 20.24 21.98 19.06 26.45 34.01 32.22 35.28 38.72 40.81 42.38 43.88 44.50 44.44 45.63 46.52 46.57 46.94 50.66 53.11 53.95 54.09 53.92 53.29 51.93 50.38 51.63 53.13 52.87 51.92 49.45 46.95 45.87 46.32
24.26 29.03 26.43 25.18 26.75 26.97 27.56 24.02 23.93 24.05 21.75 13.28 18.35 19.10 23.47 30.04 32.52 35.33 38.60 40.60 41.95 42.97 44.43 45.17 46.17 46.78 47.40 47.03 47.38 49.95 51.85 52.53 53.14 52.58 51.89 50.32 51.39 52.69 49.73 49.40 46.83 45.42 45.45 45.07
23.68 24.35 27.26 28.29 23.61 26.79 24.52 21.67 13.13 11.32 11.64 10.56 22.36 19.08 22.58 31.71 35.85 37.06 37.88 39.75 41.69 43.18 43.52 43.89 44.39 45.00 45.75 45.95 45.30 47.49 49.86 50.64 51.88 51.33 51.15 50.72 51.72 52.81 49.35 47.52 46.46 44.49 43.32 43.42
15.08 13.10 23.18 28.96 25.39 23.93 23.88 21.17 13.94 6.28 8.99 14.12 22.26 15.71 23.69 33.49 36.95 38.06 39.43 40.24 41.35 40.53 41.29 42.63 43.65 43.94 44.54 44.58 45.05 45.83 47.55 50.03 51.15 50.25 50.44 50.87 51.16 51.72 49.97 48.55 47.91 45.46 43.88 43.67
15.46 14.75 26.21 27.08 28.14 25.87 23.00 19.52 24.64 16.49 16.66 16.01 20.58 23.86 29.00 31.91 32.77 34.38 35.93 37.38 37.11 36.20 36.11 36.70 37.36 38.21 38.46 39.81 41.19 43.09 45.28 48.41 50.16 49.15 49.22 49.42 49.66 50.34 49.45 48.79 47.49 46.44 45.93 43.71
20.87 12.83 23.94 27.09 29.12 28.98 25.99 27.45 17.55 18.03 8.90 8.44 17.78 20.24 22.49 20.78 22.01 25.90 28.09 30.43 31.94 32.89 33.29 33.62 33.26 33.28 34.14 34.36 36.07 38.21 42.51 45.26 47.61 48.26 47.93 47.73 47.95 48.18 47.28 45.82 44.53 43.76 42.34 41.24
23.00 18.66 18.70 24.16 21.49 19.82 22.28 22.04 23.02 22.42 20.15 12.69 12.81 17.13 21.91 20.37 21.15 21.17 26.30 27.37 28.29 29.46 30.20 29.93 29.76 30.27 30.18 31.70 31.61 33.12 34.77 35.24 39.66 44.77 45.65 45.55 45.78 45.62 39.34 39.93 40.74 36.71 36.15 35.82
23.13 20.10 14.89 17.81 24.89 27.03 23.52 24.34 23.31 16.88 15.17 19.26 19.21 16.74 23.32 21.82 22.48 23.55 24.00 27.45 27.89 28.25 28.72 28.23 28.23 29.08 29.63 29.96 30.89 30.68 31.56 33.32 34.84 36.89 40.79 39.14 39.86 37.89 35.35 36.04 35.11 35.29 35.47 35.46
22.86 19.60 12.34 14.81 21.26 25.61 19.27 20.80 20.08 20.06 23.80 18.72 16.67 17.67 23.60 22.28 21.52 22.49 22.33 23.60 26.53 27.62 27.30 27.34 28.30 27.97 27.83 28.01 28.34 29.56 31.09 32.23 33.72 34.01 35.28 35.44 35.06 35.71 35.04 34.89 34.89 35.46 35.86 35.31
28.10 19.99 15.12 10.14 13.76 18.86 16.19 17.14 20.57 19.38 20.24 20.33 17.00 18.35 17.92 19.39 18.96 19.72 20.29 21.96 23.42 24.38 25.66 25.60 26.38 27.91 27.23 26.83 26.52 26.84 29.41 30.77 32.25 33.44 33.90 33.64 34.10 34.70 34.66 34.42 34.08 34.51 34.52 33.92
24.52 16.37 16.38 17.63 19.15 21.15 17.46 15.99 16.18 15.89 17.87 17.08 15.72 14.81 16.93 19.06 18.38 19.07 20.64 20.88 21.20 21.21 22.14 22.89 24.98 26.71 27.44 26.77 26.21 25.76 26.91 29.68 31.03 31.51 32.07 32.01 32.66 33.34 33.41 33.34 33.15 33.57 33.58 33.18
23.28 15.41 16.78 14.73 20.26 20.58 15.74 16.54 15.63 14.78 15.63 16.34 17.57 16.54 20.60 21.57 21.77 19.80 19.45 19.31 19.60 19.90 20.45 21.57 23.51 26.26 26.43 27.09 26.63 26.76 26.62 28.32 29.65 28.75 28.12 29.75 30.70 31.29 31.33 31.64 31.37 31.57 31.64 31.90
19.79 17.69 15.29 11.56 19.24 18.83 12.98 15.71 15.00 14.72 15.02 15.42 11.35 15.72 19.51 18.93 20.24 19.07 19.19 19.36 19.07 19.33 19.92 21.02 22.93 25.85 26.42 26.36 27.38 26.62 27.62 28.71 28.48 28.22 28.47 28.36 28.11 27.61 27.87 28.77 29.17 29.08 29.57 30.35
19.06 17.62 17.31 12.91 16.79 7.41 16.47 21.38 19.39 14.99 15.00 15.96 16.89 16.88 18.35 19.26 22.26 22.17 21.60 20.03 19.32 19.27 20.02 21.21 22.64 25.48 26.51 26.72 26.13 27.36 28.02 28.05 28.04 26.97 27.09 27.30 27.03 26.59 26.91 26.80 26.85 27.42 28.54 29.40
24.18 20.04 14.30 12.05 12.93 15.81 16.87 18.53 17.31 15.94 14.28 16.76 14.65 15.84 17.26 19.77 22.94 22.08 21.95 21.62 20.96 20.67 20.86 21.87 23.16 24.18 25.19 24.99 26.25 26.49 26.34 26.70 26.23 25.86 25.60 26.49 27.29 26.57 26.70 26.14 26.42 27.06 27.84 27.93
23.22 22.10 17.61 14.12 10.46 7.55 16.13 19.44 22.72 22.29 13.49 17.66 16.60 15.04 15.49 19.79 17.91 19.53 20.52 21.41 20.62 21.14 21.79 21.58 23.01 23.77 23.72 24.70 26.48 25.61 24.78 25.08 24.12 24.53 24.60 25.47 25.63 25.69 25.49 25.47 25.26 25.62 26.78 26.06
16.45 16.36 14.33 14.41 12.28 13.51 18.80 19.63 21.43 12.43 13.57 17.70 17.62 16.46 16.59 15.85 17.32 19.06 20.22 19.91 21.42 20.62 20.71 22.27 22.49 21.99 23.02 25.18 25.26 23.40 23.29 21.93 22.89 23.61 23.51 23.73 24.09 23.91 24.44 24.00 24.38 24.48 24.52 24.45
15.31 13.36 14.08 14.89 11.27 8.73 19.37 19.92 16.20 16.56 18.21 17.36 18.09 17.84 16.62 17.33 17.62 17.81 19.19 18.94 19.94 19.86 19.81 20.71 20.65 20.47 21.85 23.42 24.08 21.72 20.26 21.80 22.51 22.13 21.52 21.62 22.74 23.21 23.31 22.83 22.73 22.95 23.36 22.92
15.88 18.48 16.16 16.45 16.81 19.54 19.80 17.46 18.53 18.21 16.67 18.51 18.73 18.97 18.33 17.96 17.81 18.59 18.33 18.79 18.96 19.51 20.02 20.51 19.79 19.87 19.93 20.79 22.38 20.06 19.43 20.53 20.58 20.43 19.63 20.20 21.22 21.53 22.11 21.98 21.06 21.06 22.39 21.88
20.21 20.59 18.64 17.99 18.71 18.78 18.65 19.73 18.03 18.59 18.41 18.98 19.33 18.35 17.89 16.57 17.19 17.34 18.14 17.67 17.51 17.79 17.47 18.43 18.58 18.14 17.86 18.90 19.21 19.33 19.47 19.53 19.95 18.88 18.22 18.64 19.13 19.23 20.18 20.84 20.85 21.31 20.92 20.93
21.68 19.18 17.05 18.54 17.99 18.37 18.99 18.63 18.20 18.07 18.35 18.10 18.33 17.29 16.15 15.85 15.80 15.78 16.48 15.72 15.84 15.78 15.84 16.34 15.50 16.15 16.21 16.77 17.17 17.63 17.92 18.29 18.28 17.99 17.75 18.56 19.12 19.26 18.71 18.99 19.58 19.40 20.02 21.39
20.44 18.97 17.07 17.78 19.38 18.78 18.77 19.01 17.96 17.50 16.83 17.05 16.13 15.59 15.39 14.26 13.78 14.31 15.01 14.54 14.08 13.82 13.61 13.49 13.27 13.03 13.34 13.69 14.47 15.26 14.60 15.78 17.73 17.58 17.81 18.59 18.50 18.45 18.41 18.43 18.46 20.30 20.56 21.94
MSLP
1012.22 1012.18 1011.17 1010.38 1010.09 1009.78 1009.23 1008.47 1006.73 1005.83 1005.10 1004.70 1003.19 1002.40 1002.01 1001.95 1001.40 1000.68 1000.53 1000.56 1000.53 1000.46 1000.51 1001.35 1002.14 1003.06 1003.71 1004.23 1004.61 1005.28 1006.09 1006.81 1007.74 1008.58 1009.49 1010.26 1010.54 1011.21 1011.98 1012.44 1012.79 1013.31 1013.84 1014.59
1012.46 1011.45 1010.19 1010.33 1010.33 1009.95 1009.21 1008.43 1007.19 1006.30 1005.35 1004.75 1003.07 1001.78 1001.63 1001.23 1000.70 1000.66 1000.56 1000.18 1000.07 1000.17 1000.34 1001.05 1001.69 1002.34 1002.82 1003.29 1003.79 1004.62 1005.45 1006.23 1006.90 1007.45 1008.05 1008.98 1009.72 1010.37 1011.27 1012.11 1012.51 1012.85 1013.32 1013.87
1011.62 1009.26 1009.84 1010.10 1009.71 1009.42 1008.91 1008.37 1007.14 1006.21 1005.05 1004.34 1004.04 1001.37 1000.80 1000.32 1000.44 1000.28 1000.12 999.83 999.76 999.67 999.86 1000.24 1001.28 1001.59 1002.04 1002.51 1003.11 1003.69 1004.51 1005.21 1005.92 1006.56 1007.71 1008.78 1009.60 1010.77 1011.09 1011.51 1011.86 1012.12 1012.76 1013.55
1010.13 1008.96 1009.48 1009.20 1008.98 1009.05 1008.07 1007.12 1007.19 1006.77 1005.61 1003.67 1003.80 1000.72 999.49 999.29 999.27 999.64 999.24 999.28 999.03 999.11 999.43 999.91 1000.18 1000.75 1001.18 1001.64 1002.45 1003.13 1003.74 1004.35 1005.21 1005.97 1006.72 1007.39 1007.78 1008.53 1008.94 1009.66 1010.65 1011.41 1012.20 1012.89
1008.16 1008.68 1008.64 1008.47 1007.64 1007.99 1007.15 1007.62 1007.28 1006.49 1005.69 1004.95 1003.52 1002.56 999.11 998.41 997.99 998.28 998.03 997.90 998.00 998.44 998.91 999.38 999.60 1000.05 1000.34 1001.06 1001.66 1002.30 1002.87 1003.58 1004.20 1004.91 1005.65 1006.47 1007.00 1007.35 1007.98 1008.86 1009.88 1010.81 1011.54 1012.10
1009.28 1008.37 1008.71 1006.87 1006.58 1006.89 1007.01 1007.16 1006.95 1006.42 1005.35 1003.65 1002.73 1002.55 998.90 997.04 996.74 996.88 996.65 996.59 997.00 997.47 998.02 998.56 998.79 999.26 999.75 1000.34 1001.07 1001.67 1002.34 1002.66 1003.20 1003.88 1004.58 1005.17 1005.64 1006.16 1006.89 1007.66 1008.65 1009.66 1010.58 1011.42
1008.40 1007.22 1006.73 1006.59 1006.47 1005.96 1006.67 1006.46 1005.79 1005.19 1004.03 1001.96 1001.19 1000.64 999.11 997.59 996.92 996.62 996.55 996.72 996.98 997.15 997.69 998.08 998.50 999.00 999.58 1000.01 1000.46 1000.93 1001.42 1001.63 1002.09 1002.74 1003.41 1003.96 1004.49 1005.20 1005.62 1006.25 1007.16 1008.37 1009.41 1010.36
1009.14 1006.68 1006.32 1006.09 1006.07 1005.35 1005.14 1005.33 1004.39 1002.87 1002.16 1000.59 999.83 998.16 996.39 997.88 998.02 997.94 997.38 997.26 997.43 998.29 998.70 998.89 999.25 999.62 999.83 1000.12 1000.36 1000.55 1000.75 1001.08 1001.78 1002.28 1002.44 1003.00 1003.51 1004.09 1004.73 1005.36 1005.94 1006.83 1007.74 1008.60
1009.99 1007.62 1006.18 1005.33 1004.97 1005.35 1003.67 1003.49 1002.93 1003.05 1002.16 1000.44 998.56 997.65 997.23 998.46 998.46 998.38 998.58 998.81 999.35 1000.03 1000.15 1000.49 1000.63 1000.84 1001.04 1000.98 1000.98 1000.74 1000.64 1000.75 1001.12 1001.61 1002.26 1002.63 1003.23 1003.44 1003.58 1004.46 1005.45 1006.09 1006.98 1008.00
1010.99 1008.23 1005.69 1004.95 1004.43 1003.99 1003.80 1003.16 1003.26 1003.07 1001.64 1000.32 998.84 998.55 998.96 1000.79 1001.52 1001.46 1001.17 1001.09 1001.51 1001.77 1001.72 1001.79 1002.04 1002.22 1002.20 1002.18 1002.01 1001.60 1001.06 1000.74 1000.90 1001.34 1001.79 1002.28 1002.68 1003.15 1003.77 1004.48 1005.12 1005.87 1006.73 1007.73
1011.22 1009.92 1006.43 1005.42 1004.81 1004.69 1004.09 1003.02 1002.66 1001.72 1000.78 1000.25 999.53 1000.80 1002.64 1003.28 1003.63 1003.55 1003.15 1003.25 1003.27 1003.33 1003.25 1003.42 1003.32 1003.41 1003.34 1002.88 1002.66 1002.44 1001.88 1001.48 1001.36 1001.38 1001.75 1002.29 1002.56 1003.01 1003.78 1004.64 1005.22 1005.91 1006.74 1007.58
1011.05 1009.91 1007.61 1006.00 1004.62 1004.99 1004.73 1003.02 1002.49 1002.02 1001.05 1001.03 1001.13 1003.09 1004.45 1005.02 1005.27 1004.97 1004.75 1004.59 1004.65 1004.53 1004.41 1004.34 1004.20 1004.05 1003.74 1003.43 1003.25 1002.99 1002.44 1001.97 1001.68 1001.58 1001.75 1002.17 1002.66 1003.22 1004.00 1004.63 1005.09 1005.80 1006.58 1007.62
1011.32 1009.71 1008.00 1005.69 1005.27 1004.95 1005.07 1004.42 1003.80 1003.15 1002.08 1001.37 1001.99 1004.10 1005.64 1006.15 1006.24 1006.40 1006.30 1006.02 1005.60 1005.46 1005.19 1004.97 1004.68 1004.47 1004.25 1003.99 1003.74 1003.43 1003.07 1002.63 1002.27 1002.03 1002.10 1002.44 1002.92 1003.40 1003.94 1004.52 1005.24 1005.61 1006.49 1006.81
1010.94 1010.34 1009.91 1009.12 1007.77 1007.29 1006.28 1005.20 1003.14 1003.13 1002.13 1002.10 1003.98 1004.92 1006.24 1007.10 1007.42 1007.53 1007.56 1007.32 1006.95 1006.49 1005.98 1005.75 1005.27 1004.87 1004.58 1004.50 1004.29 1003.99 1003.70 1003.34 1003.00 1002.74 1002.66 1002.86 1003.14 1003.48 1003.93 1004.44 1004.96 1005.74 1006.00 1007.05
1011.24 1010.36 1009.96 1008.98 1008.27 1007.68 1007.13 1006.46 1005.40 1004.48 1004.21 1004.06 1005.77 1006.47 1007.78 1008.25 1008.60 1008.70 1008.57 1008.18 1007.61 1007.22 1006.76 1006.31 1005.86 1005.44 1005.09 1004.81 1004.65 1004.47 1004.35 1004.01 1003.64 1003.42 1003.45 1003.54 1003.58 1003.84 1004.24 1004.72 1005.19 1005.55 1006.32 1006.55
1011.29 1010.38 1009.73 1008.40 1007.94 1007.63 1007.97 1008.12 1007.40 1006.81 1006.80 1006.81 1007.15 1007.61 1008.51 1008.71 1008.98 1008.75 1008.63 1008.53 1008.38 1007.88 1007.57 1007.08 1006.49 1005.96 1005.68 1005.38 1005.15 1004.99 1004.98 1004.65 1004.40 1004.16 1004.25 1004.37 1004.34 1004.47 1004.77 1005.20 1005.57 1006.08 1006.45 1007.20
1010.97 1010.50 1009.89 1008.45 1008.05 1007.98 1008.61 1009.18 1009.42 1009.47 1009.53 1009.27 1009.09 1009.88 1009.47 1009.22 1009.26 1009.31 1009.16 1008.92 1008.66 1008.65 1008.31 1007.75 1007.12 1006.58 1006.32 1006.15 1005.84 1005.52 1005.47 1005.29 1005.10 1004.99 1004.86 1004.96 1005.05 1005.17 1005.46 1005.79 1006.13 1006.48 1007.10 1007.67
1010.78 1010.56 1010.13 1008.86 1008.11 1008.56 1009.69 1009.98 1010.20 1010.41 1010.89 1010.90 1010.98 1010.82 1010.42 1010.03 1009.78 1010.04 1010.21 1010.03 1009.72 1009.53 1008.81 1008.36 1007.80 1007.12 1006.86 1006.68 1006.54 1006.17 1006.06 1005.96 1005.75 1005.91 1005.70 1005.88 1005.75 1005.97 1006.14 1006.39 1006.84 1007.33 1007.80 1008.24
1010.65 1010.53 1010.19 1009.70 1008.95 1009.50 1009.76 1010.46 1010.85 1011.08 1011.59 1011.95 1011.87 1011.68 1011.25 1010.38 1010.09 1010.11 1010.39 1010.45 1010.37 1009.82 1009.36 1008.94 1008.40 1007.89 1007.47 1007.27 1007.13 1006.89 1006.82 1006.74 1006.54 1006.72 1006.71 1006.73 1006.76 1006.62 1006.97 1007.20 1007.54 1007.99 1008.37 1008.78
1010.65 1010.62 1010.53 1009.98 1009.65 1009.88 1010.73 1011.06 1011.27 1011.36 1012.14 1012.63 1012.68 1012.45 1012.05 1010.97 1010.51 1010.98 1011.26 1011.28 1010.95 1010.51 1010.05 1009.38 1008.83 1008.50 1008.22 1007.98 1007.70 1007.52 1007.61 1007.60 1007.39 1007.56 1007.66 1007.52 1007.51 1007.49 1007.57 1007.98 1008.17 1008.44 1008.73 1009.10
1010.91 1010.69 1010.43 1010.21 1010.24 1010.91 1011.28 1011.28 1011.33 1012.08 1013.49 1013.05 1013.18 1013.13 1012.73 1012.28 1012.61 1012.33 1011.96 1011.68 1011.40 1010.95 1010.40 1009.89 1009.44 1009.14 1008.93 1008.61 1008.43 1008.37 1008.40 1008.44 1008.46 1008.22 1008.29 1008.37 1008.12 1008.16 1008.17 1008.59 1008.80 1008.99 1009.19 1009.55
1011.54 1011.21 1010.80 1010.81 1010.99 1011.63 1011.98 1011.64 1012.40 1013.56 1013.33 1013.48 1013.43 1013.49 1013.25 1013.05 1012.75 1012.52 1012.21 1011.97 1011.69 1011.28 1010.92 1010.61 1010.19 1009.99 1009.81 1009.49 1009.26 1009.28 1009.30 1009.44 1009.33 1009.26 1009.14 1009.02 1008.86 1008.87 1008.87 1009.04 1009.18 1009.43 1009.61 1009.84
1011.71 1011.81 1011.80 1011.83 1011.78 1012.24 1012.85 1013.36 1013.86 1014.20 1014.21 1013.84 1013.76 1013.74 1013.59 1013.27 1013.11 1012.73 1012.54 1012.34 1012.13 1011.74 1011.50 1011.31 1010.98 1010.73 1010.56 1010.36 1010.03 1009.98 1010.07 1009.95 1009.87 1009.80 1009.77 1009.67 1009.52 1009.49 1009.50 1009.49 1009.65 1009.89 1010.10 1010.00
1011.63 1011.82 1011.84 1012.04 1012.09 1012.65 1013.28 1013.74 1014.15 1014.42 1014.44 1014.24 1014.17 1014.21 1014.17 1013.91 1013.80 1013.20 1013.05 1013.07 1012.74 1012.34 1012.21 1012.04 1011.73 1011.56 1011.40 1011.22 1011.00 1010.75 1010.66 1010.57 1010.43 1010.30 1010.19 1010.13 1010.03 1010.03 1009.97 1009.95 1009.98 1010.04 1010.10 1010.23
1011.57 1011.91 1011.67 1011.75 1012.28 1013.04 1013.55 1013.95 1014.34 1014.62 1014.75 1014.45 1014.59 1014.91 1014.89 1014.64 1014.46 1013.96 1013.93 1013.60 1013.43 1013.16 1012.99 1012.85 1012.61 1012.36 1012.15 1011.96 1011.76 1011.60 1011.37 1011.08 1010.81 1010.69 1010.65 1010.52 1010.39 1010.34 1010.32 1010.24 1010.20 1010.12 1010.45 1010.56
1011.08 1010.84 1011.16 1011.29 1011.93 1012.52 1013.16 1013.88 1014.40 1014.56 1014.75 1015.01 1015.19 1015.39 1015.29 1015.28 1015.07 1014.91 1014.59 1014.40 1014.28 1013.96 1013.86 1013.63 1013.43 1013.19 1012.92 1012.66 1012.39 1012.12 1011.98 1011.68 1011.36 1011.05 1010.87 1010.75 1010.75 1010.70 1010.52 1010.46 1010.57 1010.62 1010.68 1010.66
Wind_Speed
11 10 15 17 21 25 25 27 30 23 26 29 29 26 25 22 22 19 20 21 21 22 21 15 13 14 14 17 19 19 18 18 14 10 11 9 10 11 9 8 11 15 13 14
12 17 25 18 16 20 22 25 29 30 29 24 28 31 27 24 24 23 24 22 19 18 18 11 11 14 16 18 19 19 18 16 16 12 12 9 11 10 9 6 9 14 15 15
20 29 19 19 22 22 20 21 24 29 28 24 21 31 28 25 24 24 24 23 23 23 21 18 13 14 16 17 18 19 20 19 19 17 10 3 4 3 7 8 9 13 15 14
18 24 23 24 25 23 23 26 22 23 24 21 17 21 21 23 25 25 24 21 23 22 18 18 15 16 15 16 15 17 18 20 17 18 14 18 13 11 11 11 11 12 17 16
20 14 17 18 22 18 20 19 20 21 20 21 23 13 16 22 24 25 26 25 24 20 17 17 16 13 14 13 15 16 17 17 17 18 18 15 15 12 10 10 16 15 14 15
25 19 15 23 22 20 15 11 16 13 13 16 20 18 14 14 22 25 25 26 24 23 19 19 19 16 14 13 13 13 16 17 19 19 21 22 22 18 12 14 13 13 11 11
13 12 9 15 13 12 13 10 6 8 9 13 18 21 21 9 12 23 23 22 18 20 19 17 17 13 11 12 14 13 17 19 20 22 22 23 23 22 19 18 14 16 12 11
14 15 1 2 7 7 11 15 9 9 12 14 19 13 22 25 21 9 11 13 13 5 6 10 9 6 7 8 11 14 17 17 18 19 22 20 22 15 14 16 13 13 14 14
10 15 21 20 16 14 2 15 18 10 3 9 10 14 26 11 15 14 13 12 3 3 4 4 7 6 7 6 5 9 13 14 16 18 15 17 16 18 17 17 15 12 14 11
7 16 10 5 12 3 10 1 5 6 5 12 6 5 5 9 11 10 10 8 7 6 6 7 7 8 9 9 9 9 10 11 12 14 14 13 15 15 12 11 14 13 10 12
14 6 12 11 7 12 5 6 7 5 8 12 7 6 5 5 6 7 9 10 10 9 9 8 8 8 8 8 8 8 5 4 6 9 10 11 11 12 7 8 8 9 10 13
6 7 9 21 14 9 13 6 12 5 7 4 6 5 9 8 8 11 11 11 9 9 9 8 8 8 8 8 8 9 7 4 6 5 7 6 7 8 9 10 12 12 13 12
7 4 12 10 1 1 8 16 11 11 7 13 7 6 7 8 11 12 12 12 11 10 11 10 8 8 8 8 8 8 7 6 3 3 6 7 8 10 10 10 10 12 10 14
11 3 6 11 18 17 13 18 13 8 6 9 3 6 13 13 13 13 13 12 11 11 12 11 11 8 7 7 7 8 8 6 4 2 4 6 7 8 8 9 11 11 13 13
4 6 8 11 16 5 16 20 17 14 7 7 5 6 11 10 8 10 10 11 13 14 14 13 12 10 8 8 8 7 7 6 3 4 4 4 5 6 7 8 8 9 10 12
6 6 5 13 6 6 13 17 18 16 14 9 6 7 14 9 4 13 15 14 14 15 15 13 13 9 8 7 7 7 6 6 3 5 5 5 6 7 7 8 9 9 9 9
3 3 4 5 5 6 3 10 12 7 14 7 12 8 13 8 6 14 16 16 16 15 14 14 12 8 6 6 6 7 7 6 7 6 7 7 7 8 8 8 9 9 9 9
2 2 2 6 7 4 3 7 5 8 10 11 6 11 12 12 1 10 13 13 14 14 14 13 10 8 6 6 5 5 6 6 7 6 7 6 8 8 8 8 9 8 7 9
5 2 3 4 4 3 3 6 5 5 5 11 10 12 12 14 4 4 16 13 12 13 11 10 8 7 7 7 5 5 5 5 6 6 6 5 4 7 6 7 8 7 8 7
1 2 3 3 3 4 3 9 7 2 1 10 10 11 12 12 3 6 15 12 11 10 10 9 9 8 8 7 6 5 5 5 6 5 5 5 4 5 7 6 6 4 5 6
4 2 3 4 1 1 4 12 5 2 4 9 8 9 10 7 5 12 10 10 9 9 10 9 9 9 9 7 5 6 6 7 5 5 5 4 5 5 6 5 5 5 6 6
4 5 3 2 2 1 8 0 2 3 4 5 7 7 9 8 8 8 9 9 10 10 10 10 8 8 8 8 5 5 6 4 4 4 4 4 4 3 4 5 5 4 5 6
3 1 3 3 3 2 3 3 1 2 4 4 5 7 8 9 8 9 10 10 9 10 9 9 7 7 8 8 6 4 3 4 3 3 3 3 3 3 3 4 4 4 4 5
3 2 3 2 3 3 3 3 2 3 4 4 4 5 6 7 8 7 8 8 9 9 9 8 7 7 7 7 7 6 4 3 1 2 2 2 2 2 2 2 2 2 2 2
2 3 3 4 3 4 6 3 1 1 1 3 3 3 4 5 6 7 7 7 8 8 9 7 7 6 6 6 5 5 5 4 3 2 1 0 0 1 2 1 1 2 0 2
6 6 5 2 5 1 3 3 1 0 2 2 2 1 4 6 6 6 5 6 7 8 7 7 7 6 7 6 5 3 3 3 3 2 2 2 2 2 2 3 3 2 3 5
Wind_Direction
239 247 237 246 249 250 256 264 268 269 250 246 254 250 246 241 242 238 234 234 230 233 242 245 206 202 206 210 210 201 194 194 185 178 175 178 190 194 185 189 184 190 188 189
267 248 249 261 276 268 261 253 254 260 261 269 249 246 249 244 238 243 243 240 238 241 243 237 209 202 204 208 209 202 201 191 194 187 189 196 199 196 191 184 187 196 192 187
261 252 259 252 262 269 255 250 251 250 255 254 281 257 248 239 243 245 245 246 248 244 244 245 214 207 210 210 205 199 200 199 197 195 182 141 118 104 180 183 192 202 196 187
257 267 258 258 258 254 255 245 250 261 253 250 243 266 246 233 228 233 235 233 239 242 239 245 240 221 210 211 205 204 197 198 195 189 181 185 191 189 199 201 195 190 192 193
261 266 270 257 255 249 245 259 257 251 252 254 237 270 274 239 217 221 234 236 233 231 228 234 238 231 215 203 198 202 199 197 191 191 190 194 206 209 193 195 189 193 191 194
260 267 275 255 261 250 250 243 244 262 246 241 237 229 249 230 216 219 224 227 229 234 235 238 243 241 225 206 199 197 198 201 194 194 195 199 204 201 185 187 184 187 186 184
322 269 243 238 267 236 229 215 230 222 219 249 237 224 239 266 267 220 227 237 237 233 234 241 240 244 237 217 201 195 198 203 197 196 198 201 207 207 197 186 185 177 179 188
338 323 285 87 244 283 216 208 220 227 227 255 224 230 228 224 242 251 241 237 258 302 291 254 252 257 253 233 222 210 207 208 200 202 206 206 205 205 201 197 190 186 186 188
323 295 303 284 264 255 246 212 225 265 269 274 236 221 235 283 266 272 256 259 264 44 30 356 345 342 331 317 304 252 223 215 207 206 206 207 208 208 199 199 196 189 182 178
308 294 303 319 305 359 231 131 167 195 233 243 244 215 91 12 2 15 25 30 8 355 355 349 348 347 342 333 319 300 262 230 213 204 205 206 205 206 202 187 189 183 172 161
304 249 290 306 346 308 352 244 232 262 228 218 234 87 10 2 353 338 27 19 5 358 355 352 349 344 334 337 337 320 289 234 203 196 198 202 200 198 157 169 180 156 145 156
311 293 291 301 298 228 343 308 227 237 222 228 299 78 5 17 15 20 13 11 14 4 351 353 353 350 351 353 350 342 334 278 211 173 170 162 154 149 155 169 156 158 162 165
315 279 317 323 191 278 332 330 304 285 260 234 241 107 26 21 28 21 13 1 359 7 9 5 9 10 0 355 352 349 346 336 -0 132 145 148 157 164 171 169 171 163 169 165
299 298 254 284 291 309 332 349 326 233 190 167 36 115 14 14 19 11 5 1 -0 1 5 2 4 9 14 3 360 358 345 348 349 41 127 150 165 168 168 160 160 164 157 159
293 281 278 274 289 285 28 5 13 48 24 45 67 76 9 1 13 6 4 5 9 6 2 1 356 350 7 19 19 14 1 348 14 64 73 98 106 123 138 147 151 151 162 155
301 271 305 298 239 52 39 16 22 26 14 40 30 63 3 353 343 16 16 13 11 5 355 352 350 353 357 13 27 24 17 12 22 90 89 94 111 116 122 128 130 127 124 133
253 268 315 281 329 299 352 4 40 45 31 343 33 334 333 350 30 22 9 8 5 356 352 351 350 350 1 8 15 34 24 38 52 67 86 92 98 98 99 105 113 117 122 129
268 278 300 294 307 56 110 35 96 88 35 20 5 352 346 339 96 40 21 7 1 351 353 350 350 353 12 16 21 32 36 47 60 47 61 70 90 94 95 96 94 97 113 125
207 238 294 309 350 116 119 15 333 347 28 11 354 354 343 335 184 65 13 2 351 351 348 348 356 5 21 21 14 31 40 51 63 55 54 56 73 105 99 106 115 118 127 129
104 226 294 320 326 8 17 328 322 295 196 5 359 351 350 353 36 7 350 343 352 358 358 8 14 26 30 15 16 36 41 46 56 56 60 63 78 89 106 112 114 105 121 127
328 345 320 320 324 226 337 317 317 258 1 348 351 344 351 8 348 315 333 346 353 3 1 14 21 25 16 13 27 49 48 43 40 52 51 60 76 88 99 103 110 120 120 125
317 327 340 297 299 317 359 281 27 355 320 328 338 345 339 331 328 340 344 351 357 7 11 9 19 21 12 12 28 53 55 30 45 61 65 67 73 86 105 115 113 118 131 132
273 275 300 273 328 75 34 91 4 278 281 320 326 343 341 339 342 351 353 357 359 9 11 8 11 13 17 8 17 50 29 23 40 63 69 75 77 86 103 123 124 131 157 148
232 161 238 254 170 179 138 144 359 302 304 337 355 344 341 334 335 355 2 357 357 8 6 360 9 18 18 11 14 24 14 10 39 81 76 53 77 97 101 118 127 140 148 152
295 168 210 255 177 151 202 189 206 218 292 30 21 338 338 334 346 0 355 3 1 2 2 1 5 4 7 359 5 0 354 347 355 4 -0 241 130 174 145 99 141 147 186 212
185 192 194 240 149 174 145 171 200 321 23 25 13 319 19 5 358 349 354 357 352 354 353 353 352 351 346 341 333 334 331 325 300 281 284 270 225 200 187 169 150 170 184 189